EW8108 Weather Reports


Display with metric or nautical units.
time (UTC)temp
F
wind
direction
speed
MPH
gust
MPH
rain 1hr
in
rain 24hr
in
rain mn
in
humidity
%
barometer
mb
20260509224024 93 178 0.0 3.0 0.00 0.00 0.00 43 969.5
20260509221919 93 175 0.0 1.0 0.00 0.00 0.00 46 969.5
20260509214742 91 175 0.0 2.0 0.00 0.00 0.00 48 969.7
20260509213746 91 173 0.0 2.0 0.00 0.00 0.00 50 969.8
20260509212722 91 173 0.0 0.0 0.00 0.00 0.00 50 970.0
20260509211744 90 173 0.0 0.0 0.00 0.00 0.00 52 970.0
20260509210736 90 173 0.0 3.0 0.00 0.00 0.00 49 970.1
20260509204618 89 196 0.0 2.0 0.00 0.00 0.00 53 970.3
20260509203630 89 199 0.0 2.0 0.00 0.00 0.00 48 970.5
20260509202612 89 204 0.0 2.0 0.00 0.00 0.00 48 970.6
20260509201602 90 182 0.0 2.0 0.00 0.00 0.00 46 971.0
20260509200534 91 257 0.0 0.0 0.00 0.00 0.00 51 971.2
20260509195525 92 257 0.0 0.0 0.00 0.00 0.00 46 971.1
20260509194513 93 256 0.0 0.0 0.00 0.00 0.00 47 971.0
20260509193527 92 257 0.0 0.0 0.00 0.00 0.00 52 971.0
20260509191353 92 257 0.0 0.0 0.00 0.00 0.00 53 971.1
20260509190319 91 257 0.0 0.0 0.00 0.00 0.00 54 971.3
20260509185310 90 257 0.0 0.0 0.00 0.00 0.00 55 971.5
20260509184316 89 257 0.0 0.0 0.00 0.00 0.00 56 971.6
20260509183244 88 257 0.0 0.0 0.00 0.00 0.00 57 971.8
20260509182234 88 257 0.0 0.0 0.00 0.00 0.00 57 971.9
20260509181235 88 257 0.0 0.0 0.00 0.00 0.00 56 971.9
20260509180225 87 257 0.0 0.0 0.00 0.00 0.00 57 972.2
20260509175203 86 257 0.0 0.0 0.00 0.00 0.00 60 972.1
20260509174221 86 257 0.0 0.0 0.00 0.00 0.00 59 972.2
20260509173235 87 257 0.0 0.0 0.00 0.00 0.00 58 972.4
20260509172204 88 257 0.0 0.0 0.00 0.00 0.00 58 972.8
20260509165943 85 257 0.0 0.0 0.00 0.00 0.00 54 972.7
20260509164945 83 257 0.0 0.0 0.00 0.00 0.00 50 972.7
20260509164007 82 257 0.0 0.0 0.00 0.00 0.00 39 972.7
20260509162941 81 257 0.0 3.0 0.00 0.00 0.00 6 972.7
20260509161941 80 229 0.0 2.0 0.00 0.00 0.00 1 972.9
20260509155848 77 227 0.0 0.0 0.00 0.00 0.00 1 973.0
20260509154911 77 227 0.0 0.0 0.00 0.00 0.00 1 972.9
20260509153905 78 227 0.0 0.0 0.00 0.00 0.00 1 973.0
20260509152901 78 227 0.0 0.0 0.00 0.00 0.00 1 972.8
20260509151859 79 226 0.0 0.0 0.00 0.00 0.00 1 972.5
20260509150905 79 227 0.0 1.0 0.00 0.00 0.00 1 972.3
20260509144736 81 223 0.0 0.0 0.00 0.00 0.00 11 972.2
20260509143758 81 223 0.0 2.0 0.00 0.00 0.00 3 972.3
20260509142811 80 222 0.0 1.0 0.00 0.00 0.00 1 972.0
20260509140646 79 220 0.0 1.0 0.00 0.00 0.00 1 971.5
20260509135627 76 212 0.0 1.0 0.00 0.00 0.00 1 971.3
20260509134634 75 211 0.0 3.0 0.00 0.00 0.00 1 971.4
20260509133659 74 209 0.0 0.0 0.00 0.00 0.00 1 971.5
20260509131502 73 209 0.0 0.0 0.00 0.00 0.00 1 971.7
20260509130449 73 209 0.0 0.0 0.00 0.00 0.00 1 971.8
20260509125453 72 209 0.0 0.0 0.00 0.00 0.00 1 972.0
20260509123324 72 209 0.0 0.0 0.00 0.00 0.00 1 972.1
20260509122305 72 209 0.0 0.0 0.00 0.00 0.00 1 971.9
20260509121246 72 209 0.0 0.0 0.00 0.00 0.00 1 971.9
20260509120240 72 209 0.0 0.0 0.00 0.00 0.00 1 972.2
20260509114027 72 209 0.0 0.0 0.00 0.00 0.00 1 972.2
20260509113016 72 209 0.0 0.0 0.00 0.00 0.00 1 972.4
20260509111946 72 209 0.0 0.0 0.00 0.00 0.00 1 972.9
20260509111010 72 209 0.0 0.0 0.00 0.00 0.00 1 973.1
20260509110022 72 209 0.0 0.0 0.00 0.00 0.00 1 973.3
20260509103834 73 209 0.0 0.0 0.00 0.00 0.00 1 973.1
20260509102826 73 209 0.0 0.0 0.00 0.00 0.00 1 973.3
20260509101820 73 209 0.0 0.0 0.00 0.00 0.00 1 973.2
20260509095720 73 209 0.0 0.0 0.00 0.00 0.00 1 972.6
20260509094702 73 209 0.0 0.0 0.00 0.00 0.00 1 972.1
20260509093716 73 209 0.0 0.0 0.00 0.00 0.00 1 971.7
20260509092722 73 209 0.0 0.0 0.00 0.00 0.00 1 971.6
20260509091711 73 209 0.0 0.0 0.00 0.00 0.00 1 971.6
20260509090642 73 209 0.0 0.0 0.00 0.00 0.00 1 971.5
20260509085631 73 209 0.0 0.0 0.00 0.00 0.00 1 971.6
20260509084632 73 209 0.0 0.0 0.00 0.00 0.00 1 971.7
20260509083629 73 209 0.0 0.0 0.00 0.00 0.00 1 971.8
20260509082646 73 209 0.0 0.0 0.00 0.00 0.00 1 972.0
20260509080506 73 209 0.0 0.0 0.00 0.00 0.00 1 972.1
20260509075443 73 209 0.0 0.0 0.00 0.00 0.00 1 972.1
20260509074433 73 209 0.0 0.0 0.00 0.00 0.00 1 972.1
20260509073451 73 209 0.0 0.0 0.00 0.00 0.00 1 972.0
20260509072428 73 209 0.0 0.0 0.00 0.00 0.00 1 972.3
20260509071442 73 209 0.0 0.0 0.00 0.00 0.00 1 972.3
20260509070411 73 209 0.0 0.0 0.00 0.00 0.00 1 972.7
20260509065347 73 209 0.0 0.0 0.00 0.00 0.00 1 972.5
20260509064313 73 209 0.0 0.0 0.00 0.00 0.00 1 972.2
20260509063335 73 209 0.0 0.0 0.00 0.00 0.00 1 972.2
20260509062309 73 209 0.0 0.0 0.00 0.00 0.00 1 972.4
20260509061328 73 209 0.0 0.0 0.00 0.00 0.00 1 972.2
20260509060321 73 209 0.0 0.0 0.00 0.00 0.00 1 971.7
20260509055249 73 209 0.0 0.0 0.00 0.00 0.00 1 971.8
20260509054249 73 209 0.0 0.0 0.00 0.00 0.00 1 972.0
20260509053307 72 208 0.0 0.0 0.00 0.00 0.00 1 971.5
20260509052331 72 208 0.0 0.0 0.00 0.00 0.00 1 971.1
20260509051309 72 208 0.0 0.0 0.00 0.00 0.00 1 970.9
20260509050241 72 208 0.0 0.0 0.00 0.00 0.00 1 970.9
20260509042922 72 208 0.0 0.0 0.00 0.00 0.00 1 971.3
20260509041914 72 208 0.0 0.0 0.00 0.00 0.00 1 971.5
20260509035711 72 208 0.0 0.0 0.00 0.00 0.00 1 971.6
20260509034722 73 208 0.0 0.0 0.00 0.00 0.00 1 971.5
20260509033718 73 208 0.0 0.0 0.00 0.00 0.00 1 971.4
20260509032707 73 208 0.0 0.0 0.00 0.00 0.00 1 971.2
20260509030546 73 208 0.0 0.0 0.00 0.00 0.00 1 971.1
20260509025525 73 208 0.0 0.0 0.00 0.00 0.00 1 971.1
20260509024537 74 208 0.0 0.0 0.00 0.00 0.00 1 971.1
20260509023543 74 208 0.0 0.0 0.00 0.00 0.00 1 970.9
20260509021423 74 208 0.0 0.0 0.00 0.00 0.00 1 970.6
20260509020446 75 208 0.0 0.0 0.00 0.00 0.00 1 970.4
20260509015501 75 208 0.0 0.0 0.00 0.00 0.00 1 970.2
20260509014503 75 208 0.0 0.0 0.00 0.00 0.00 1 970.3
20260509013450 75 208 0.0 0.0 0.00 0.00 0.00 3 970.1
20260509012449 75 208 0.0 0.0 0.00 0.00 0.00 10 970.0
20260509011437 75 208 0.0 0.0 0.00 0.00 0.00 14 969.9
20260509010439 76 208 0.0 0.0 0.00 0.00 0.00 17 970.0
20260509005441 76 208 0.0 0.0 0.00 0.00 0.00 22 970.1
20260509004447 76 208 0.0 0.0 0.00 0.00 0.00 24 970.1
20260509002320 76 208 0.0 0.0 0.00 0.00 0.00 31 970.1
20260509000147 76 208 0.0 0.0 0.00 0.00 0.00 39 970.2
20260508235139 76 208 0.0 0.0 0.00 0.00 0.00 42 970.2
20260508234150 76 208 0.0 0.0 0.00 0.00 0.00 46 970.2
20260508233210 77 208 0.0 0.0 0.00 0.00 0.00 48 970.2
20260508232232 77 208 0.0 0.0 0.00 0.00 0.00 50 970.2
20260508231209 77 208 0.0 0.0 0.00 0.00 0.00 52 970.2
20260508230205 77 208 0.0 0.0 0.00 0.00 0.00 54 970.1
20260508225137 78 208 0.0 0.0 0.00 0.00 0.00 56 970.1